STARLINK-11490, 62219

Orbit data source: Space-Track

STARLINK-11490, 62219 is a payload satellite owned by SpaceX/Seattle (US) in LEO that was launched on Thu, 05 Dec 2024 UTC via an FALCON 9 launch vehicle from the Air Force Western Test Range (AFWTR). Payload-class satellites include a variety of spacecraft equipped with specific instruments for various scientific and technological missions. These include communications satellites like Starlink; space stations such as the ISS; scientific satellites like the Hubble; Earth observation satellites from companies like Planet Labs, Umbra, and HawkEye 360; GPS; miniature CubeSats for education and research; and military/defense satellites.

Loading next visibility...
Identifier
62219, 2024-231B
Orbit
LEO
Country
Flag of USUS
Related business
Manufacturer
SpaceX/Seattle
Mission
Operational Commercial Communications
Bus & Motor
STARLINK V2MD, Unknown motor
Mass
960 kg wet, ~910 kg dry
Launch date (UTC)
2024-12-05 (11 months ago)
Launch vehicle
FALCON 9
Launch site
Air Force Western Test Range (AFWTR)
Object type
Payload
Rocket body
Debris
Shape & HBR
Box + 2 Pan, 18.1 m
Radar Cross Section
36.964 m², Large (>1 m²)

Expand to show TLE details & history
Last TLE update: 14 hours ago

TLE from 14 hours ago
0 STARLINK-11490
1 62219U 24231B   25298.02988716  .00427353  00000-0  33267-2 0  9996
2 62219  53.1570  50.0920 0001673  57.9227 302.1953 15.69906321 52101
Epoch: 2025-10-25T00:43Z
TLE epoch observation values (Epoch: 2025-10-25T00:43:02.250Z)
Latitude
-0.00005°
Longitude
5.66629°
Altitude
359.479 km
Speed
7.695 km/s
True Right ascension
03h 20m 22s
True Declination
0° 00' 00"
Sunlit
Object was in full shadow at epoch
Visualization orbit readout
Latitude
Unknown
Longitude
Unknown
Altitude
Unknown
Speed
Unknown
Apparent Right ascension
Unknown
Apparent Declination
Unknown
Sunlit
N/A
Visualization observer readout
Local Sidereal Time
09:40:59
Azimuth
Unknown
Elevation
Unknown
Doppler factor
Unknown
Orbital elements
Apogee altitude
360.553 km
Perigee altitude
358.299 km
Semi-major axis
6,737.563 km
Eccentricity
0.00017
Inclination
53.157°
RAAN
50.092°
Arg. of periapsis
57.9227°
True anomaly
302.17907°
Mean anomaly
302.1953°
Eccentric anomaly
302.18719°
Mean motion
3.92454 °/min
Orbital period
91.73 mins
BSTAR
0.0033267
Loading maneuver chart data...
Computing Atmospheric mass density...
Loading historical data...
Loading historical data...
Loading historical data...
Loading historical data...
Loading historical data...
Loading historical data...
Loading historical data...

Documentation

Showing up to 5 results
|